| time (UTC) | temp F | wind direction | speed MPH | gust MPH | rain 1hr in | rain 24hr in | rain mn in | humidity % | barometer mb |
| 20260507120053 | 49 | 345 | 9.0 | 15.0 | 0.00 | 0.00 | 0.00 | 98 | 1008.1 |
| 20260507114545 | 49 | 347 | 11.0 | 16.0 | 0.00 | 0.00 | 0.00 | 98 | 1008.4 |
| 20260507113048 | 49 | 322 | 8.0 | 15.0 | 0.00 | 0.00 | 0.00 | 98 | 1007.7 |
| 20260507111540 | 50 | 322 | 11.0 | 21.0 | 0.00 | 0.00 | 0.00 | 98 | 1007.7 |
| 20260507110038 | 52 | 296 | 11.0 | 18.0 | 0.00 | 0.00 | 0.00 | 99 | 1007.5 |
| 20260507104536 | 52 | 308 | 6.0 | 11.0 | 0.00 | 0.00 | 0.00 | 99 | 1006.8 |
| 20260507103036 | 52 | 272 | 6.0 | 10.0 | 0.00 | 0.00 | 0.00 | 99 | 1006.7 |
| 20260507101535 | 52 | 260 | 5.0 | 11.0 | 0.00 | 0.00 | 0.00 | 99 | 1006.9 |
| 20260507100037 | 52 | 262 | 12.0 | 19.0 | 0.00 | 0.00 | 0.00 | 99 | 1007.3 |
| 20260507094534 | 52 | 252 | 6.0 | 11.0 | 0.00 | 0.00 | 0.00 | 99 | 1006.4 |
| 20260507093033 | 52 | 273 | 7.0 | 11.0 | 0.00 | 0.00 | 0.00 | 99 | 1006.5 |
| 20260507091531 | 51 | 253 | 10.0 | 16.0 | 0.00 | 0.00 | 0.00 | 99 | 1006.7 |
| 20260507090029 | 51 | 252 | 7.0 | 15.0 | 0.00 | 0.00 | 0.00 | 99 | 1006.5 |
| 20260507084528 | 51 | 238 | 8.0 | 17.0 | 0.00 | 0.00 | 0.00 | 99 | 1006.0 |
| 20260507083025 | 51 | 247 | 8.0 | 16.0 | 0.00 | 0.00 | 0.00 | 99 | 1006.3 |
| 20260507081531 | 52 | 259 | 9.0 | 16.0 | 0.00 | 0.00 | 0.00 | 99 | 1006.5 |
| 20260507080022 | 52 | 256 | 11.0 | 17.0 | 0.00 | 0.00 | 0.00 | 99 | 1006.4 |
| 20260507074528 | 52 | 220 | 10.0 | 16.0 | 0.00 | 0.00 | 0.00 | 99 | 1006.6 |
| 20260507073137 | 52 | 220 | 11.0 | 19.0 | 0.00 | 0.00 | 0.00 | 99 | 1007.1 |
| 20260507071517 | 52 | 231 | 14.0 | 21.0 | 0.00 | 0.00 | 0.00 | 98 | 1007.2 |
| 20260507070014 | 52 | 258 | 16.0 | 23.0 | 0.00 | 0.00 | 0.00 | 98 | 1007.2 |
| 20260507064511 | 52 | 266 | 11.0 | 22.0 | 0.00 | 0.00 | 0.00 | 98 | 1007.2 |
| 20260507063008 | 52 | 181 | 12.0 | 22.0 | 0.00 | 0.00 | 0.00 | 98 | 1006.9 |
| 20260507061509 | 52 | 227 | 12.0 | 22.0 | 0.00 | 0.00 | 0.00 | 98 | 1006.9 |
| 20260507060005 | 52 | 247 | 13.0 | 24.0 | 0.00 | 0.00 | 0.00 | 98 | 1007.1 |
| 20260507054501 | 53 | 249 | 15.0 | 24.0 | 0.00 | 0.00 | 0.00 | 98 | 1007.4 |
| 20260507053059 | 53 | 250 | 12.0 | 27.0 | 0.00 | 0.00 | 0.00 | 98 | 1007.7 |
| 20260507051556 | 53 | 235 | 16.0 | 26.0 | 0.00 | 0.00 | 0.00 | 98 | 1007.7 |
| 20260507050057 | 53 | 216 | 17.0 | 30.0 | 0.00 | 0.00 | 0.00 | 98 | 1007.9 |
| 20260507044552 | 53 | 238 | 14.0 | 24.0 | 0.00 | 0.00 | 0.00 | 98 | 1008.1 |
| 20260507043049 | 54 | 252 | 15.0 | 23.0 | 0.00 | 0.00 | 0.00 | 98 | 1008.2 |
| 20260507041547 | 54 | 231 | 15.0 | 29.0 | 0.00 | 0.00 | 0.00 | 98 | 1008.4 |
| 20260507040041 | 54 | 212 | 15.0 | 29.0 | 0.00 | 0.00 | 0.00 | 98 | 1008.4 |
| 20260507034546 | 54 | 214 | 15.0 | 29.0 | 0.00 | 0.00 | 0.00 | 98 | 1008.6 |
| 20260507033057 | 54 | 206 | 14.0 | 28.0 | 0.00 | 0.00 | 0.00 | 98 | 1008.6 |
| 20260507031538 | 54 | 207 | 15.0 | 24.0 | 0.00 | 0.00 | 0.00 | 98 | 1008.7 |
| 20260507030038 | 54 | 212 | 17.0 | 31.0 | 0.00 | 0.00 | 0.00 | 98 | 1008.7 |
| 20260507024541 | 55 | 241 | 17.0 | 36.0 | 0.00 | 0.00 | 0.00 | 98 | 1008.8 |
| 20260507023034 | 54 | 217 | 17.0 | 28.0 | 0.00 | 0.00 | 0.00 | 98 | 1009.0 |
| 20260507021533 | 54 | 231 | 11.0 | 28.0 | 0.00 | 0.00 | 0.00 | 97 | 1009.0 |
| 20260507020033 | 54 | 211 | 20.0 | 36.0 | 0.00 | 0.00 | 0.00 | 97 | 1009.4 |
| 20260507014531 | 54 | 227 | 16.0 | 36.0 | 0.00 | 0.00 | 0.00 | 97 | 1009.7 |
| 20260507013036 | 54 | 203 | 23.0 | 33.0 | 0.00 | 0.00 | 0.00 | 98 | 1009.4 |
| 20260507011533 | 53 | 240 | 18.0 | 34.0 | 0.00 | 0.00 | 0.00 | 97 | 1009.6 |
| 20260507010130 | 54 | 183 | 19.0 | 31.0 | 0.00 | 0.00 | 0.00 | 97 | 1009.5 |
| 20260507004529 | 54 | 197 | 20.0 | 30.0 | 0.00 | 0.00 | 0.00 | 97 | 1009.6 |
| 20260507003027 | 54 | 185 | 17.0 | 31.0 | 0.00 | 0.00 | 0.00 | 97 | 1009.5 |
| 20260507001529 | 53 | 180 | 18.0 | 32.0 | 0.00 | 0.00 | 0.00 | 96 | 1009.9 |
| 20260507000028 | 54 | 179 | 20.0 | 31.0 | 0.00 | 0.00 | 0.00 | 96 | 1010.2 |
| 20260506234542 | 54 | 200 | 19.0 | 27.0 | 0.00 | 0.00 | 0.00 | 96 | 1010.3 |
| 20260506233023 | 54 | 188 | 17.0 | 26.0 | 0.00 | 0.00 | 0.00 | 95 | 1010.1 |
| 20260506231521 | 53 | 203 | 15.0 | 29.0 | 0.00 | 0.00 | 0.00 | 94 | 1010.3 |
| 20260506230020 | 54 | 183 | 18.0 | 29.0 | 0.00 | 0.00 | 0.00 | 92 | 1010.5 |
| 20260506224526 | 54 | 192 | 17.0 | 28.0 | 0.00 | 0.00 | 0.00 | 92 | 1010.7 |
| 20260506223018 | 54 | 172 | 15.0 | 27.0 | 0.00 | 0.00 | 0.00 | 92 | 1010.7 |
| 20260506221517 | 55 | 175 | 17.0 | 27.0 | 0.00 | 0.00 | 0.00 | 91 | 1010.7 |
| 20260506220029 | 55 | 193 | 17.0 | 27.0 | 0.00 | 0.00 | 0.00 | 91 | 1010.8 |
| 20260506214515 | 55 | 191 | 18.0 | 29.0 | 0.00 | 0.00 | 0.00 | 91 | 1010.8 |
| 20260506213012 | 54 | 182 | 17.0 | 27.0 | 0.00 | 0.00 | 0.00 | 91 | 1010.9 |
| 20260506211518 | 55 | 176 | 15.0 | 28.0 | 0.00 | 0.00 | 0.00 | 90 | 1011.1 |
| 20260506210010 | 55 | 170 | 18.0 | 27.0 | 0.00 | 0.00 | 0.00 | 90 | 1011.3 |
| 20260506204509 | 56 | 182 | 18.0 | 31.0 | 0.00 | 0.00 | 0.00 | 90 | 1011.4 |
| 20260506203007 | 55 | 219 | 16.0 | 32.0 | 0.00 | 0.00 | 0.00 | 90 | 1011.2 |
| 20260506201506 | 55 | 174 | 14.0 | 27.0 | 0.00 | 0.00 | 0.00 | 90 | 1011.4 |
| 20260506200005 | 55 | 138 | 18.0 | 30.0 | 0.00 | 0.00 | 0.00 | 90 | 1011.7 |
| 20260506194504 | 55 | 175 | 17.0 | 26.0 | 0.00 | 0.00 | 0.00 | 91 | 1011.7 |
| 20260506193002 | 55 | 193 | 19.0 | 29.0 | 0.00 | 0.00 | 0.00 | 89 | 1011.7 |
| 20260506191501 | 55 | 204 | 15.0 | 29.0 | 0.00 | 0.00 | 0.00 | 90 | 1012.0 |
| 20260506190059 | 55 | 184 | 20.0 | 32.0 | 0.00 | 0.00 | 0.00 | 89 | 1012.3 |
| 20260506184557 | 56 | 182 | 21.0 | 33.0 | 0.00 | 0.00 | 0.00 | 88 | 1012.5 |
| 20260506183101 | 56 | 182 | 20.0 | 35.0 | 0.00 | 0.00 | 0.00 | 87 | 1012.8 |
| 20260506181613 | 56 | 178 | 22.0 | 35.0 | 0.00 | 0.00 | 0.00 | 87 | 1013.1 |
| 20260506180052 | 58 | 212 | 19.0 | 31.0 | 0.00 | 0.00 | 0.00 | 86 | 1013.0 |
| 20260506174551 | 59 | 191 | 19.0 | 35.0 | 0.00 | 0.00 | 0.00 | 86 | 1013.1 |
| 20260506173117 | 56 | 195 | 19.0 | 33.0 | 0.00 | 0.00 | 0.00 | 88 | 1013.4 |
| 20260506171554 | 57 | 164 | 21.0 | 36.0 | 0.00 | 0.00 | 0.00 | 87 | 1013.4 |
| 20260506170054 | 58 | 223 | 20.0 | 32.0 | 0.00 | 0.00 | 0.00 | 86 | 1013.8 |
| 20260506164545 | 58 | 228 | 18.0 | 34.0 | 0.00 | 0.00 | 0.00 | 86 | 1014.0 |
| 20260506163043 | 58 | 160 | 17.0 | 33.0 | 0.00 | 0.00 | 0.00 | 85 | 1014.1 |
| 20260506161541 | 58 | 187 | 19.0 | 31.0 | 0.00 | 0.00 | 0.00 | 87 | 1014.3 |
| 20260506160046 | 57 | 175 | 22.0 | 38.0 | 0.00 | 0.00 | 0.00 | 87 | 1014.6 |
| 20260506154540 | 57 | 209 | 19.0 | 32.0 | 0.00 | 0.00 | 0.00 | 88 | 1014.7 |
| 20260506153038 | 57 | 200 | 18.0 | 33.0 | 0.00 | 0.00 | 0.00 | 87 | 1014.5 |
| 20260506151539 | 57 | 193 | 20.0 | 34.0 | 0.00 | 0.00 | 0.00 | 87 | 1014.5 |
| 20260506150037 | 57 | 197 | 22.0 | 35.0 | 0.00 | 0.00 | 0.00 | 87 | 1014.4 |
| 20260506144537 | 57 | 193 | 19.0 | 31.0 | 0.00 | 0.00 | 0.00 | 86 | 1014.5 |
| 20260506143036 | 57 | 202 | 23.0 | 36.0 | 0.00 | 0.00 | 0.00 | 88 | 1014.8 |
| 20260506141533 | 57 | 223 | 20.0 | 34.0 | 0.00 | 0.00 | 0.00 | 87 | 1014.8 |
| 20260506140035 | 58 | 208 | 17.0 | 30.0 | 0.00 | 0.00 | 0.00 | 86 | 1014.9 |
| 20260506134530 | 57 | 175 | 19.0 | 33.0 | 0.00 | 0.00 | 0.00 | 88 | 1014.7 |
| 20260506133028 | 58 | 181 | 18.0 | 28.0 | 0.00 | 0.00 | 0.00 | 87 | 1014.6 |
| 20260506131542 | 57 | 208 | 19.0 | 34.0 | 0.00 | 0.00 | 0.00 | 88 | 1014.6 |
| 20260506130036 | 57 | 196 | 16.0 | 30.0 | 0.00 | 0.00 | 0.00 | 89 | 1014.6 |
| 20260506124521 | 55 | 179 | 19.0 | 33.0 | 0.00 | 0.00 | 0.00 | 90 | 1014.7 |
| 20260506123020 | 55 | 209 | 19.0 | 30.0 | 0.00 | 0.00 | 0.00 | 91 | 1014.9 |
| 20260506121519 | 56 | 168 | 20.0 | 30.0 | 0.00 | 0.00 | 0.00 | 90 | 1015.0 |